Вернуться в каталог

MATS

АктивенНаукаSSO
NORAD 54227·PAYLOAD·🇸🇪 Sweden

Запущен Nov 4, 2022 с Rocket Lab Launch Complex 1

Loading…

Ближайшие Пролёты (ближайшие 24 часа)

TLE

СвежийSource: Space-Track

Эпоха: Sep 13, 2026, 21:47 UTC

1 54227U 22147A   26256.90777113  .00001666  00000-0  11928-3 0  9995
2 54227  97.6874 258.1697 0010790 257.5605 102.4415 15.05768289211112

Отслеживайте MATS в реальном времени с AllMySat

Download on the App Store